Torna al catalogo

STARLINK-37406

AttivoComunicazioniVLEO
NORAD 69199·PAYLOAD·🇺🇸 United States

Lanciato May 25, 2026 da Cape Canaveral Space Force Station

Loading…

Prossimi Passaggi (prossime 24 ore)

TLE

AggiornatoSource: CelesTrak SupGP

Epoca: Sep 14, 2026, 21:08 UTC

1 69199C 26114T   26257.88104167 -.00015045  00000+0 -44367-3 0  2575
2 69199  53.1572 139.9452 0001258  81.1782 301.7987 15.34457642    12

Traccia STARLINK-37406 in tempo reale con AllMySat

Download on the App Store